EW3156 Weather Reports


Display with metric or nautical units.
time (UTC)temp
F
wind
direction
speed
MPH
gust
MPH
rain 1hr
in
rain 24hr
in
rain mn
in
humidity
%
barometer
mb
20260508163027 67 70 0.0 4.0 0.00 0.00 0.00 63 1016.7
20260508161514 67 84 0.0 2.0 0.00 0.00 0.00 64 1016.9
20260508160019 66 149 1.0 5.0 0.00 0.00 0.00 67 1017.0
20260508154508 65 96 1.0 4.0 0.00 0.00 0.00 68 1017.4
20260508153003 64 93 0.0 6.0 0.00 0.00 0.00 70 1017.2
20260508151504 64 102 0.0 5.0 0.00 0.00 0.00 75 1017.2
20260508150110 63 93 0.0 4.0 0.00 0.00 0.00 74 1017.4
20260508144557 63 112 0.0 3.0 0.00 0.00 0.00 77 1017.4
20260508143121 62 78 0.0 3.0 0.00 0.00 0.00 78 1017.5
20260508141553 61 95 0.0 4.0 0.00 0.00 0.00 84 1017.7
20260508134544 59 113 0.0 1.0 0.00 0.00 0.00 87 1017.9
20260508133043 58 120 0.0 1.0 0.00 0.00 0.00 90 1018.0
20260508131538 56 120 0.0 3.0 0.00 0.00 0.00 93 1017.8
20260508130034 56 120 0.0 2.0 0.00 0.00 0.00 96 1017.7
20260508124534 55 122 0.0 2.0 0.00 0.00 0.00 97 1017.5
20260508123034 54 122 0.0 1.0 0.00 0.00 0.00 98 1017.6
20260508121527 54 123 0.0 1.0 0.00 0.00 0.00 99 1017.2
20260508120023 53 123 0.0 1.0 0.00 0.00 0.00 98 1017.1
20260508114520 53 123 0.0 0.0 0.00 0.00 0.00 98 1016.8
20260508113018 53 123 0.0 0.0 0.00 0.00 0.00 98 1016.7
20260508111514 53 123 0.0 1.0 0.00 0.00 0.00 98 1016.4
20260508110011 53 123 0.0 1.0 0.00 0.00 0.00 98 1016.3
20260508104510 53 123 0.0 1.0 0.00 0.01 0.00 98 1016.2
20260508103008 53 123 0.0 0.0 0.00 0.01 0.00 98 1016.0
20260508101508 53 123 0.0 0.0 0.00 0.01 0.00 98 1016.0
20260508100008 53 123 0.0 0.0 0.00 0.01 0.00 98 1015.8
20260508094505 53 123 0.0 0.0 0.00 0.08 0.00 97 1015.4
20260508093004 53 123 0.0 0.0 0.00 0.08 0.00 97 1015.0
20260508091504 54 123 0.0 0.0 0.00 0.08 0.00 98 1014.6
20260508090002 54 123 0.0 0.0 0.00 0.08 0.00 97 1014.6
20260508084501 54 123 0.0 0.0 0.00 0.09 0.00 97 1014.6
20260508083048 54 123 0.0 0.0 0.00 0.09 0.00 97 1014.4
20260508081536 54 123 0.0 0.0 0.00 0.09 0.00 97 1014.4
20260508080053 55 123 0.0 0.0 0.00 0.09 0.00 97 1014.4
20260508074535 55 123 0.0 0.0 0.00 0.14 0.00 97 1014.6
20260508073038 55 123 0.0 0.0 0.00 0.14 0.00 97 1014.9
20260508071531 55 123 0.0 0.0 0.00 0.14 0.00 96 1015.0
20260508070029 56 123 0.0 0.0 0.00 0.14 0.00 97 1014.7
20260508064540 56 123 0.0 1.0 0.00 0.14 0.00 97 1014.9
20260508063028 56 123 0.0 0.0 0.00 0.14 0.00 96 1014.9
20260508061529 56 123 0.0 0.0 0.00 0.14 0.00 96 1015.0
20260508060025 56 123 0.0 0.0 0.00 0.14 0.00 95 1015.0
20260508054537 56 123 0.0 0.0 0.00 0.15 0.00 96 1015.3
20260508053021 57 123 0.0 0.0 0.00 0.15 0.00 95 1015.5
20260508051520 57 123 0.0 0.0 0.00 0.15 0.00 95 1015.5
20260508050018 57 123 0.0 0.0 0.00 0.15 0.00 95 1015.7
20260508044516 57 123 0.0 0.0 0.00 0.24 0.15 94 1015.7
20260508043015 57 123 0.0 0.0 0.00 0.24 0.15 94 1015.6
20260508041515 57 123 0.0 0.0 0.00 0.24 0.15 94 1015.5
20260508040033 58 123 0.0 0.0 0.00 0.24 0.15 94 1015.6
20260508034511 58 123 0.0 0.0 0.00 0.40 0.15 93 1015.6
20260508033010 58 123 0.0 0.0 0.00 0.40 0.15 93 1015.3
20260508031514 58 123 0.0 1.0 0.00 0.40 0.15 92 1015.5
20260508030008 59 123 0.0 0.0 0.00 0.40 0.15 92 1015.4
20260508024517 59 123 0.0 0.0 0.00 0.46 0.15 91 1015.2
20260508023008 59 123 0.0 0.0 0.00 0.46 0.15 91 1015.0
20260508021502 60 123 0.0 0.0 0.00 0.46 0.15 90 1014.8
20260508020002 60 123 0.0 0.0 0.00 0.46 0.15 90 1014.9
20260508014502 60 123 0.0 1.0 0.00 0.46 0.15 90 1014.8
20260508013001 61 123 0.0 0.0 0.00 0.46 0.15 87 1014.7
20260508011600 62 123 0.0 1.0 0.00 0.46 0.15 86 1014.6
20260508010100 63 123 0.0 1.0 0.00 0.46 0.15 84 1014.4
20260508004602 65 123 0.0 1.0 0.00 0.46 0.15 81 1014.2
20260508003058 66 123 0.0 1.0 0.00 0.46 0.15 79 1014.1
20260508001559 67 123 0.0 1.0 0.00 0.46 0.15 77 1014.1
20260508000101 68 123 0.0 5.0 0.00 0.46 0.15 74 1013.8
20260507234602 69 149 0.0 3.0 0.00 0.46 0.15 75 1013.7
20260507233116 70 215 0.0 3.0 0.00 0.46 0.15 73 1013.6
20260507231557 70 152 0.0 1.0 0.00 0.46 0.15 74 1013.4
20260507230056 70 186 0.0 3.0 0.00 0.46 0.15 72 1013.3
20260507224556 70 260 1.0 4.0 0.00 0.46 0.15 73 1013.2
20260507223154 70 209 0.0 2.0 0.00 0.47 0.15 73 1013.2
20260507221554 71 142 0.0 4.0 0.00 0.47 0.15 71 1013.3
20260507220053 72 191 1.0 7.0 0.00 0.47 0.15 70 1013.2
20260507214553 72 271 0.0 6.0 0.00 0.47 0.15 70 1013.2
20260507213052 73 190 0.0 4.0 0.00 0.60 0.15 70 1013.0
20260507211558 72 150 0.0 5.0 0.00 0.60 0.15 71 1013.1
20260507210106 72 166 0.0 5.0 0.00 0.60 0.15 73 1012.8
20260507204548 71 246 1.0 3.0 0.00 0.60 0.15 73 1013.1
20260507203043 70 107 0.0 3.0 0.00 0.60 0.15 76 1013.2
20260507201543 69 117 1.0 4.0 0.00 0.60 0.15 75 1013.3
20260507200051 70 254 0.0 6.0 0.00 0.60 0.15 76 1013.4
20260507194549 70 63 0.0 4.0 0.00 0.60 0.15 75 1013.4
20260507193039 70 276 1.0 6.0 0.00 0.60 0.15 76 1013.4
20260507191536 68 142 1.0 5.0 0.00 0.60 0.15 78 1013.6
20260507190043 66 277 1.0 8.0 0.00 0.60 0.15 82 1013.6
20260507184542 66 249 1.0 3.0 0.00 0.60 0.15 82 1013.7
20260507183030 65 155 0.0 6.0 0.00 0.60 0.15 85 1014.0
20260507181529 64 160 0.0 5.0 0.00 0.60 0.15 86 1014.3
20260507180028 64 257 0.0 6.0 0.00 0.60 0.15 89 1014.2
20260507174532 63 304 0.0 4.0 0.00 0.60 0.15 88 1014.4
20260507173040 62 287 0.0 4.0 0.00 0.60 0.15 91 1014.6
20260507171523 61 254 1.0 5.0 0.00 0.60 0.15 93 1014.7
20260507170023 61 227 1.0 5.0 0.00 0.60 0.15 92 1014.7
20260507164530 61 268 0.0 4.0 0.00 0.60 0.15 93 1014.8